Location: Ipswich
(52.0579°N, 1.1528°E)
Time: 21:09:34
(UTC+01:00)

ISS - Pass Details

Date: 04 May 2026
Orbit: 414 x 424 km, 51.6° (Epoch: 15 May)

Event Time Altitude Azimuth Distance (km) Brightness Sun altitude
Rises 04:37:20 0° 282° (WNW) 2,364 -0.3 -6.4°
Reaches altitude 10° 04:39:30 10° 275° (W) 1,501 -1.4 -6.1°
Maximum altitude 04:42:41 39° 205° (SSW) 641 -3.2 -5.7°
Drops below altitude 10° 04:45:51 10° 134° (SE) 1,501 -0.8 -5.3°
Sets 04:48:01 0° 127° (SE) 2,364 0.3 -5.1°
